ASA101 DNAA-DGAA

Flight info

Callsign ASA101
Flight time 1h 23m
Altitude 28000
Route ABC VONUK UH340 LAG UL433 ACC
Aircraft B38M/M-ICAO/S

Departure

Time 2026-04-21 17:21
Airport Nnamdi Azikiwe International Airport (DNAA)

Arrival

Time 2026-04-21 18:44
Airport Kotoka International Airport (DGAA)
Time Latitude Longitude Altitude Speed Heading
2026-04-21 16:45 9.00573 7.26891 1124 ft 0 kts
2026-04-21 17:06 9.00568 7.26891 1117 ft 3 kts
2026-04-21 17:07 9.00549 7.26888 1123 ft 3 kts
2026-04-21 17:07 9.00537 7.26885 1120 ft 0 kts 352°
2026-04-21 17:07 9.00523 7.26884 1116 ft 3 kts 43°
2026-04-21 17:07 9.00517 7.26875 1116 ft 3 kts 65°
2026-04-21 17:08 9.00509 7.26858 1119 ft 3 kts 65°
2026-04-21 17:08 9.00501 7.26841 1121 ft 3 kts 65°
2026-04-21 17:08 9.00494 7.26824 1122 ft 3 kts 65°
2026-04-21 17:08 9.00486 7.26807 1124 ft 3 kts 48°
2026-04-21 17:09 9.00462 7.26802 1118 ft 0 kts 308°
2026-04-21 17:12 9.00463 7.26801 1118 ft 1 kts 309°
2026-04-21 17:12 9.00470 7.26788 1117 ft 3 kts 294°
2026-04-21 17:13 9.00469 7.26756 1120 ft 6 kts 256°
2026-04-21 17:13 9.00451 7.26707 1118 ft 9 kts 245°
2026-04-21 17:13 9.00460 7.26640 1121 ft 12 kts 310°
2026-04-21 17:13 9.00538 7.26584 1114 ft 14 kts 320°
2026-04-21 17:14 9.00591 7.26526 1119 ft 11 kts 309°
2026-04-21 17:14 9.00652 7.26506 1115 ft 8 kts 15°
2026-04-21 17:14 9.00692 7.26531 1118 ft 6 kts 35°
2026-04-21 17:14 9.00729 7.26556 1116 ft 7 kts 33°
2026-04-21 17:15 9.00770 7.26585 1114 ft 8 kts 36°
2026-04-21 17:15 9.00815 7.26617 1118 ft 8 kts 35°
2026-04-21 17:15 9.00860 7.26649 1121 ft 8 kts 35°
2026-04-21 17:15 9.00912 7.26686 1122 ft 11 kts 35°
2026-04-21 17:16 9.00986 7.26737 1117 ft 14 kts 34°
2026-04-21 17:16 9.01068 7.26794 1119 ft 15 kts 34°
2026-04-21 17:16 9.01148 7.26852 1117 ft 14 kts 36°
2026-04-21 17:16 9.01224 7.26906 1128 ft 14 kts 34°
2026-04-21 17:17 9.01307 7.26963 1123 ft 15 kts 35°
2026-04-21 17:17 9.01397 7.27029 1119 ft 16 kts 34°
2026-04-21 17:17 9.01486 7.27092 1130 ft 16 kts 35°
2026-04-21 17:17 9.01579 7.27158 1123 ft 18 kts 36°
2026-04-21 17:18 9.01685 7.27234 1128 ft 19 kts 35°
2026-04-21 17:18 9.01793 7.27309 1130 ft 19 kts 34°
2026-04-21 17:18 9.01895 7.27363 1129 ft 16 kts
2026-04-21 17:18 9.01962 7.27308 1134 ft 11 kts 302°
2026-04-21 17:19 9.01969 7.27298 1132 ft 2 kts 302°
2026-04-21 17:19 9.01979 7.27281 1132 ft 4 kts 302°
2026-04-21 17:19 9.01985 7.27265 1133 ft 1 kts 281°
2026-04-21 17:19 9.01984 7.27249 1133 ft 4 kts 260°
2026-04-21 17:20 9.01966 7.27225 1130 ft 5 kts 217°
2026-04-21 17:20 9.01931 7.27202 1131 ft 9 kts 214°
2026-04-21 17:20 9.01823 7.27124 1131 ft 30 kts 214°
2026-04-21 17:20 9.01561 7.26940 1136 ft 71 kts 215°
2026-04-21 17:21 9.00972 7.26524 1110 ft 132 kts 215°
2026-04-21 17:21 9.00116 7.25921 1292 ft 158 kts 215°
2026-04-21 17:21 8.99209 7.25259 1737 ft 163 kts 214°
2026-04-21 17:21 8.98295 7.24622 2244 ft 159 kts 213°
2026-04-21 17:22 8.97676 7.24193 2527 ft 161 kts 212°
2026-04-21 17:22 8.96393 7.23309 2796 ft 183 kts 212°
2026-04-21 17:22 8.95310 7.22566 3310 ft 193 kts 213°
2026-04-21 17:22 8.94157 7.21777 3827 ft 207 kts 213°
2026-04-21 17:23 8.92918 7.20930 4323 ft 223 kts 213°
2026-04-21 17:23 8.91584 7.20021 4790 ft 239 kts 213°
2026-04-21 17:23 8.90281 7.18900 5259 ft 256 kts 232°
2026-04-21 17:23 8.89316 7.17316 5712 ft 272 kts 238°
2026-04-21 17:24 8.88327 7.15638 6283 ft 282 kts 236°
2026-04-21 17:24 8.87368 7.13879 6854 ft 290 kts 246°
2026-04-21 17:24 8.86708 7.11927 7462 ft 297 kts 257°
2026-04-21 17:24 8.86361 7.09849 8071 ft 303 kts 264°
2026-04-21 17:25 8.86166 7.07707 8693 ft 309 kts 266°
2026-04-21 17:25 8.85937 7.05523 9312 ft 316 kts 261°
2026-04-21 17:25 8.85392 7.03354 9823 ft 321 kts 251°
2026-04-21 17:25 8.84520 7.01268 9996 ft 323 kts 242°
2026-04-21 17:26 8.83365 6.99371 9995 ft 320 kts 232°
2026-04-21 17:26 8.81916 6.97665 9986 ft 320 kts 223°
2026-04-21 17:26 8.80223 6.96217 9988 ft 318 kts 213°
2026-04-21 17:26 8.78354 6.95030 9991 ft 317 kts 208°
2026-04-21 17:27 8.76469 6.93851 9997 ft 324 kts 212°
2026-04-21 17:27 8.74621 6.92411 10174 ft 345 kts 220°
2026-04-21 17:27 8.72921 6.90630 10572 ft 357 kts 229°
2026-04-21 17:27 8.71449 6.88578 11025 ft 365 kts 236°
2026-04-21 17:28 8.70082 6.86391 11502 ft 370 kts 236°
2026-04-21 17:28 8.68586 6.84250 11997 ft 374 kts 230°
2026-04-21 17:28 8.66928 6.82214 12500 ft 377 kts 227°
2026-04-21 17:28 8.65260 6.80150 12997 ft 381 kts 230°
2026-04-21 17:29 8.63648 6.78009 13491 ft 385 kts 231°
2026-04-21 17:29 8.62032 6.75842 13930 ft 387 kts 230°
2026-04-21 17:29 8.60372 6.73686 14357 ft 390 kts 230°
2026-04-21 17:29 8.58691 6.71528 14785 ft 392 kts 230°
2026-04-21 17:30 8.57015 6.69346 15223 ft 394 kts 230°
2026-04-21 17:30 8.55336 6.67144 15637 ft 397 kts 230°
2026-04-21 17:30 8.53642 6.64935 16048 ft 399 kts 230°
2026-04-21 17:30 8.51937 6.62721 16453 ft 401 kts 230°
2026-04-21 17:31 8.50242 6.60517 16847 ft 403 kts 231°
2026-04-21 17:31 8.48520 6.58272 17236 ft 405 kts 231°
2026-04-21 17:31 8.46790 6.56019 17611 ft 407 kts 231°
2026-04-21 17:31 8.45047 6.53752 17978 ft 409 kts 231°
2026-04-21 17:32 8.43889 6.52246 18196 ft 410 kts 231°
2026-04-21 17:32 8.41536 6.49186 18598 ft 413 kts 231°
2026-04-21 17:32 8.39768 6.46886 18885 ft 415 kts 231°
2026-04-21 17:32 8.38071 6.44514 19166 ft 418 kts 236°
2026-04-21 17:33 8.36646 6.41941 19441 ft 421 kts 243°
2026-04-21 17:33 8.35404 6.39249 19708 ft 424 kts 245°
2026-04-21 17:33 8.34146 6.36556 19977 ft 425 kts 242°
2026-04-21 17:33 8.32714 6.33929 20233 ft 427 kts 239°
2026-04-21 17:34 8.31230 6.31325 20478 ft 429 kts 240°
2026-04-21 17:34 8.29815 6.28662 20711 ft 431 kts 242°
2026-04-21 17:34 8.28451 6.25997 20956 ft 433 kts 241°
2026-04-21 17:34 8.27028 6.23304 21180 ft 436 kts 240°
2026-04-21 17:35 8.25568 6.20612 21388 ft 438 kts 240°
2026-04-21 17:35 8.24116 6.17903 21589 ft 440 kts 241°
2026-04-21 17:35 8.22672 6.15167 21782 ft 442 kts 241°
2026-04-21 17:35 8.21220 6.12423 21973 ft 444 kts 241°
2026-04-21 17:36 8.19748 6.09670 22153 ft 446 kts 240°
2026-04-21 17:36 8.18270 6.06906 22339 ft 448 kts 241°
2026-04-21 17:36 8.16809 6.04160 22490 ft 450 kts 241°
2026-04-21 17:36 8.15327 6.01372 22644 ft 451 kts 240°
2026-04-21 17:37 8.13838 5.98577 22806 ft 453 kts 240°
2026-04-21 17:37 8.12343 5.95778 22948 ft 454 kts 241°
2026-04-21 17:37 8.11349 5.93916 23038 ft 455 kts 241°
2026-04-21 17:37 8.09338 5.90140 23216 ft 457 kts 241°
2026-04-21 17:38 8.07825 5.87304 23355 ft 459 kts 240°
2026-04-21 17:38 8.06312 5.84467 23451 ft 460 kts 241°
2026-04-21 17:38 8.04794 5.81622 23548 ft 461 kts 241°
2026-04-21 17:38 8.03272 5.78773 23647 ft 462 kts 242°
2026-04-21 17:39 8.01745 5.75912 23742 ft 463 kts 242°
2026-04-21 17:39 8.00217 5.73047 23843 ft 464 kts 241°
2026-04-21 17:39 7.98683 5.70176 23932 ft 465 kts 241°
2026-04-21 17:39 7.97162 5.67331 24013 ft 466 kts 240°
2026-04-21 17:40 7.95621 5.64448 24097 ft 467 kts 241°
2026-04-21 17:40 7.94071 5.61551 24176 ft 468 kts 241°
2026-04-21 17:40 7.93047 5.59636 24232 ft 468 kts 241°
2026-04-21 17:40 7.91495 5.56734 24322 ft 470 kts 241°
2026-04-21 17:41 7.89941 5.53830 24392 ft 471 kts 242°
2026-04-21 17:41 7.88382 5.50919 24482 ft 472 kts 242°
2026-04-21 17:41 7.86818 5.47997 24564 ft 473 kts 242°
2026-04-21 17:41 7.85253 5.45074 24642 ft 474 kts 242°
2026-04-21 17:42 7.83685 5.42146 24713 ft 475 kts 242°
2026-04-21 17:42 7.82115 5.39213 24784 ft 476 kts 242°
2026-04-21 17:42 7.80536 5.36267 24848 ft 477 kts 242°
2026-04-21 17:42 7.78958 5.33322 24912 ft 478 kts 242°
2026-04-21 17:43 7.77377 5.30372 24977 ft 478 kts 242°
2026-04-21 17:43 7.75816 5.27460 25038 ft 479 kts 242°
2026-04-21 17:43 7.74210 5.24464 25084 ft 479 kts 242°
2026-04-21 17:43 7.72645 5.21546 25148 ft 480 kts 242°
2026-04-21 17:44 7.71052 5.18579 25210 ft 480 kts 242°
2026-04-21 17:44 7.69462 5.15614 25288 ft 480 kts 242°
2026-04-21 17:44 7.67873 5.12651 25541 ft 480 kts 243°
2026-04-21 17:44 7.66281 5.09686 25799 ft 482 kts 243°
2026-04-21 17:45 7.64684 5.06713 26054 ft 483 kts 243°
2026-04-21 17:45 7.63083 5.03732 26313 ft 485 kts 243°
2026-04-21 17:45 7.61480 5.00745 26584 ft 484 kts 243°
2026-04-21 17:45 7.59873 4.97753 26849 ft 484 kts 243°
2026-04-21 17:46 7.58273 4.94776 27105 ft 483 kts 243°
2026-04-21 17:46 7.56678 4.91809 27386 ft 480 kts 243°
2026-04-21 17:46 7.55090 4.88855 27760 ft 480 kts 243°
2026-04-21 17:46 7.53500 4.85895 28130 ft 480 kts 243°
2026-04-21 17:47 7.51912 4.82942 28509 ft 479 kts 244°
2026-04-21 17:47 7.50325 4.79993 28891 ft 478 kts 244°
2026-04-21 17:47 7.48745 4.77056 29280 ft 476 kts 244°
2026-04-21 17:47 7.47193 4.74170 29850 ft 472 kts 244°
2026-04-21 17:48 7.45637 4.71281 30393 ft 467 kts 244°
2026-04-21 17:48 7.44095 4.68415 30948 ft 462 kts 244°
2026-04-21 17:48 7.42572 4.65585 31499 ft 457 kts 244°
2026-04-21 17:48 7.41061 4.62779 32064 ft 452 kts 243°
2026-04-21 17:49 7.39572 4.60014 32653 ft 447 kts 243°
2026-04-21 17:49 7.38099 4.57280 33249 ft 442 kts 243°
2026-04-21 17:49 7.36644 4.54578 33830 ft 437 kts 243°
2026-04-21 17:49 7.35191 4.51881 34056 ft 439 kts 243°
2026-04-21 17:50 7.32279 4.46479 34064 ft 436 kts 243°
2026-04-21 17:50 7.29398 4.41133 34060 ft 437 kts 243°
2026-04-21 17:51 7.26495 4.35750 34023 ft 438 kts 243°
2026-04-21 17:51 7.25045 4.33064 33909 ft 435 kts 243°
2026-04-21 17:51 7.23601 4.30388 33816 ft 435 kts 243°
2026-04-21 17:52 7.20703 4.25015 33819 ft 437 kts 243°
2026-04-21 17:52 7.17794 4.19627 33815 ft 438 kts 243°
2026-04-21 17:53 7.14895 4.14258 33813 ft 435 kts 243°
2026-04-21 17:53 7.12004 4.08905 33814 ft 435 kts 243°
2026-04-21 17:54 7.09129 4.03585 33814 ft 435 kts 243°
2026-04-21 17:54 7.06231 3.98224 33815 ft 436 kts 243°
2026-04-21 17:55 7.03334 3.92866 33819 ft 436 kts 243°
2026-04-21 17:55 7.00435 3.87507 33818 ft 436 kts 243°
2026-04-21 17:56 6.97533 3.82142 33819 ft 436 kts 243°
2026-04-21 17:56 6.94638 3.76794 33815 ft 434 kts 243°
2026-04-21 17:57 6.91751 3.71461 33812 ft 434 kts 243°
2026-04-21 17:57 6.88862 3.66127 33813 ft 434 kts 243°
2026-04-21 17:58 6.85971 3.60792 33816 ft 434 kts 243°
2026-04-21 17:58 6.83096 3.55487 33817 ft 435 kts 243°
2026-04-21 17:59 6.80179 3.50107 33816 ft 436 kts 242°
2026-04-21 17:59 6.77275 3.44750 33816 ft 437 kts 242°
2026-04-21 18:00 6.74367 3.39391 33816 ft 436 kts 242°
2026-04-21 18:00 6.71455 3.34023 33816 ft 436 kts 242°
2026-04-21 18:01 6.68970 3.28467 33822 ft 436 kts 252°
2026-04-21 18:01 6.67090 3.22680 33824 ft 435 kts 250°
2026-04-21 18:02 6.64845 3.17010 33823 ft 436 kts 250°
2026-04-21 18:02 6.62778 3.11323 33824 ft 436 kts 250°
2026-04-21 18:03 6.60625 3.05625 33820 ft 435 kts 250°
2026-04-21 18:03 6.58498 2.99917 33821 ft 436 kts 251°
2026-04-21 18:04 6.56363 2.94213 33824 ft 436 kts 250°
2026-04-21 18:04 6.54227 2.88508 33825 ft 436 kts 250°
2026-04-21 18:05 6.52091 2.82799 33828 ft 436 kts 250°
2026-04-21 18:05 6.49950 2.77086 33828 ft 436 kts 250°
2026-04-21 18:06 6.47837 2.71375 33829 ft 436 kts 251°
2026-04-21 18:06 6.45798 2.65683 33819 ft 436 kts 251°
2026-04-21 18:07 6.43684 2.59901 33823 ft 439 kts 251°
2026-04-21 18:07 6.41598 2.54138 33822 ft 438 kts 251°
2026-04-21 18:08 6.39504 2.48384 33823 ft 438 kts 251°
2026-04-21 18:08 6.37410 2.42621 33824 ft 439 kts 251°
2026-04-21 18:09 6.35611 2.36773 33835 ft 438 kts 260°
2026-04-21 18:09 6.34836 2.30704 33840 ft 437 kts 265°
2026-04-21 18:10 6.33938 2.24695 33838 ft 438 kts 261°
2026-04-21 18:10 6.32935 2.18664 33836 ft 437 kts 263°
2026-04-21 18:11 6.32023 2.12626 33832 ft 437 kts 262°
2026-04-21 18:11 6.31045 2.06600 33831 ft 436 kts 263°
2026-04-21 18:12 6.30109 2.00571 33832 ft 437 kts 262°
2026-04-21 18:12 6.29144 1.94528 33833 ft 438 kts 262°
2026-04-21 18:13 6.28194 1.88493 33830 ft 436 kts 262°
2026-04-21 18:13 6.27240 1.82486 33832 ft 435 kts 262°
2026-04-21 18:14 6.25811 1.73461 33832 ft 436 kts 262°
2026-04-21 18:15 6.24863 1.67478 33839 ft 436 kts 262°
2026-04-21 18:15 6.23906 1.61445 33841 ft 437 kts 262°
2026-04-21 18:16 6.22948 1.55411 33847 ft 437 kts 262°
2026-04-21 18:16 6.21989 1.49380 33867 ft 436 kts 263°
2026-04-21 18:17 6.21034 1.43373 33876 ft 435 kts 263°
2026-04-21 18:17 6.20079 1.37367 33885 ft 435 kts 263°
2026-04-21 18:18 6.19123 1.31366 33891 ft 435 kts 263°
2026-04-21 18:18 6.17936 1.25396 33891 ft 437 kts 255°
2026-04-21 18:19 6.15554 1.19762 33894 ft 439 kts 244°
2026-04-21 18:19 6.12827 1.14280 33889 ft 438 kts 249°
2026-04-21 18:20 6.10543 1.08598 33880 ft 439 kts 248°
2026-04-21 18:20 6.08035 1.03032 33865 ft 442 kts 248°
2026-04-21 18:21 6.05747 0.97292 33855 ft 440 kts 252°
2026-04-21 18:21 6.03593 0.91517 33445 ft 442 kts 250°
2026-04-21 18:21 6.02481 0.88631 32790 ft 444 kts 251°
2026-04-21 18:22 6.01406 0.85729 32323 ft 441 kts 252°
2026-04-21 18:22 6.00349 0.82858 31870 ft 437 kts 252°
2026-04-21 18:22 5.99280 0.80014 31425 ft 433 kts 252°
2026-04-21 18:22 5.98291 0.77177 30994 ft 427 kts 257°
2026-04-21 18:23 5.97631 0.74287 30558 ft 421 kts 264°
2026-04-21 18:23 5.97289 0.71382 30128 ft 416 kts 268°
2026-04-21 18:23 5.97063 0.68537 29685 ft 413 kts 268°
2026-04-21 18:23 5.96717 0.65679 29187 ft 411 kts 263°
2026-04-21 18:24 5.96175 0.62861 28702 ft 409 kts 261°
2026-04-21 18:24 5.95646 0.60072 28187 ft 400 kts 263°
2026-04-21 18:24 5.95217 0.57325 26480 ft 400 kts 264°
2026-04-21 18:24 5.94825 0.54567 25087 ft 395 kts 262°
2026-04-21 18:25 5.94387 0.51865 23785 ft 390 kts 260°
2026-04-21 18:25 5.93923 0.49194 22367 ft 385 kts 259°
2026-04-21 18:25 5.93488 0.46560 21004 ft 378 kts 260°
2026-04-21 18:25 5.93078 0.43970 19677 ft 372 kts 261°
2026-04-21 18:26 5.92808 0.42279 18790 ft 370 kts 260°
2026-04-21 18:26 5.92392 0.39741 17498 ft 365 kts 260°
2026-04-21 18:26 5.91851 0.36455 15780 ft 356 kts 260°
2026-04-21 18:26 5.91454 0.34013 14508 ft 352 kts 260°
2026-04-21 18:27 5.91061 0.31592 13240 ft 350 kts 260°
2026-04-21 18:27 5.90796 0.29968 12374 ft 347 kts 260°
2026-04-21 18:27 5.90413 0.27625 11158 ft 342 kts 260°
2026-04-21 18:27 5.90031 0.25288 10189 ft 338 kts 260°
2026-04-21 18:28 5.89655 0.22990 10051 ft 328 kts 260°
2026-04-21 18:28 5.89289 0.20756 9845 ft 321 kts 260°
2026-04-21 18:28 5.88931 0.18561 9644 ft 315 kts 260°
2026-04-21 18:28 5.88582 0.16421 9534 ft 305 kts 260°
2026-04-21 18:29 5.88244 0.14354 9480 ft 294 kts 260°
2026-04-21 18:29 5.87918 0.12361 9436 ft 284 kts 260°
2026-04-21 18:29 5.87603 0.10437 9371 ft 275 kts 260°
2026-04-21 18:29 5.87298 0.08571 9303 ft 266 kts 260°
2026-04-21 18:30 5.87003 0.06769 9232 ft 258 kts 260°
2026-04-21 18:30 5.86719 0.05032 9083 ft 247 kts 260°
2026-04-21 18:30 5.86442 0.03336 8695 ft 244 kts 259°
2026-04-21 18:30 5.86172 0.01690 8327 ft 240 kts 260°
2026-04-21 18:31 5.85903 0.00044 7949 ft 234 kts 260°
2026-04-21 18:31 5.85646 -0.01525 7482 ft 221 kts 260°
2026-04-21 18:31 5.85404 -0.03002 7084 ft 208 kts 260°
2026-04-21 18:31 5.85173 -0.04417 6574 ft 203 kts 260°
2026-04-21 18:32 5.84966 -0.05801 6046 ft 199 kts 265°
2026-04-21 18:32 5.85033 -0.07172 5607 ft 195 kts 281°
2026-04-21 18:32 5.85432 -0.08456 5251 ft 191 kts 296°
2026-04-21 18:32 5.86135 -0.09577 4860 ft 189 kts 309°
2026-04-21 18:33 5.87087 -0.10477 4501 ft 186 kts 325°
2026-04-21 18:33 5.88220 -0.11086 4145 ft 184 kts 342°
2026-04-21 18:33 5.89452 -0.11361 3898 ft 175 kts 359°
2026-04-21 18:33 5.90658 -0.11274 3899 ft 177 kts 14°
2026-04-21 18:34 5.91847 -0.10982 3909 ft 175 kts 17°
2026-04-21 18:34 5.93028 -0.10660 3901 ft 174 kts 19°
2026-04-21 18:34 5.94126 -0.10140 3917 ft 176 kts 36°
2026-04-21 18:34 5.95014 -0.09354 3904 ft 172 kts 54°
2026-04-21 18:35 5.95639 -0.08347 3913 ft 169 kts 69°
2026-04-21 18:35 5.95943 -0.07220 3909 ft 167 kts 85°
2026-04-21 18:35 5.95903 -0.06044 3908 ft 169 kts 101°
2026-04-21 18:35 5.95530 -0.04955 3908 ft 164 kts 118°
2026-04-21 18:36 5.94839 -0.04002 3823 ft 169 kts 134°
2026-04-21 18:36 5.93939 -0.03315 3771 ft 158 kts 151°
2026-04-21 18:36 5.92862 -0.02942 3840 ft 164 kts 167°
2026-04-21 18:36 5.91715 -0.02901 3878 ft 170 kts 184°
2026-04-21 18:37 5.90582 -0.03198 3893 ft 173 kts 201°
2026-04-21 18:37 5.89562 -0.03815 3883 ft 170 kts 218°
2026-04-21 18:37 5.88626 -0.04571 3889 ft 171 kts 214°
2026-04-21 18:37 5.87667 -0.05271 3889 ft 171 kts 212°
2026-04-21 18:38 5.86635 -0.05892 3884 ft 171 kts 204°
2026-04-21 18:38 5.85541 -0.06377 3898 ft 171 kts 201°
2026-04-21 18:38 5.84442 -0.06835 3904 ft 171 kts 201°
2026-04-21 18:38 5.83349 -0.07288 3897 ft 169 kts 199°
2026-04-21 18:39 5.82259 -0.07738 3895 ft 170 kts 200°
2026-04-21 18:39 5.81166 -0.08190 3894 ft 171 kts 200°
2026-04-21 18:39 5.80077 -0.08641 3892 ft 169 kts 199°
2026-04-21 18:39 5.78971 -0.09097 3777 ft 174 kts 200°
2026-04-21 18:40 5.77880 -0.09550 3548 ft 166 kts 199°
2026-04-21 18:40 5.76820 -0.09988 3340 ft 168 kts 199°
2026-04-21 18:40 5.76093 -0.10288 3204 ft 169 kts 201°
2026-04-21 18:40 5.74673 -0.10876 2917 ft 163 kts 200°
2026-04-21 18:41 5.73627 -0.11305 2716 ft 164 kts 199°
2026-04-21 18:41 5.72585 -0.11735 2487 ft 156 kts 201°
2026-04-21 18:41 5.71564 -0.12156 2290 ft 158 kts 201°
2026-04-21 18:41 5.70537 -0.12580 2086 ft 156 kts 201°
2026-04-21 18:42 5.69534 -0.12995 1892 ft 155 kts 202°
2026-04-21 18:42 5.68552 -0.13402 1690 ft 147 kts 200°
2026-04-21 18:42 5.67572 -0.13807 1516 ft 153 kts 200°
2026-04-21 18:42 5.66588 -0.14212 1318 ft 153 kts 201°
2026-04-21 18:43 5.65601 -0.14621 1124 ft 158 kts 202°
2026-04-21 18:43 5.64608 -0.15033 918 ft 149 kts 199°
2026-04-21 18:43 5.63659 -0.15418 726 ft 146 kts 201°
2026-04-21 18:43 5.62771 -0.15789 523 ft 132 kts 198°
2026-04-21 18:44 5.61983 -0.16118 318 ft 116 kts 199°
2026-04-21 18:44 5.61294 -0.16405 209 ft 92 kts 204°
2026-04-21 18:44 5.60862 -0.16584 214 ft 52 kts 204°
2026-04-21 18:44 5.60586 -0.16700 215 ft 28 kts 212°
2026-04-21 18:45 5.60511 -0.16819 216 ft 18 kts 247°
2026-04-21 18:45 5.60477 -0.16904 217 ft 15 kts 250°
2026-04-21 18:45 5.60420 -0.16971 208 ft 6 kts 204°
2026-04-21 18:45 5.60378 -0.16987 214 ft 8 kts 200°
2026-04-21 18:46 5.60318 -0.17015 217 ft 11 kts 204°
2026-04-21 18:46 5.60232 -0.17052 217 ft 15 kts 198°
2026-04-21 18:46 5.60121 -0.17097 213 ft 19 kts 202°
2026-04-21 18:46 5.59995 -0.17148 214 ft 20 kts 203°
2026-04-21 18:47 5.59902 -0.17191 216 ft 11 kts 226°
2026-04-21 18:47 5.59907 -0.17251 210 ft 7 kts 294°
2026-04-21 18:47 5.59926 -0.17293 218 ft 4 kts 293°
2026-04-21 18:47 5.59928 -0.17298 216 ft 0 kts 294°